map of OSS home
Great Circle Mapper logo
OSS - Airport
Location
City:  Osh, Kyrgyzstan
Name:Osh International Airport
ICAO / IATA:UCFO / OSS

Details
Type:Airport (Aerodrome, Airfield)
Use:Public/Civil, International (customs port of entry)
Latitude:4036'32"N (40.608989)
Longitude:7247'36"E (72.793269)
Elevation:2927 ft (892 m)
Variation:4.65E (WMM2015 magnetic declination)
0.05 annual change
Runways:1
Longest:8576 × 164 ft (2614 × 50 m), paved

Time
Time Zone:UTC+5 (DST+6)

Weather
METAR:UCFO 040900Z 03003MPS 9999 FEW050 34/13 Q1008 R12/CLRD70 TEMPO 25008MPS TSRA BKN030CB
TAF:UCFO 040500Z 0406/0506 27005MPS 6000 SCT050CB BKN100
TEMPO 0406/0412 25010MPS 3000 TSRA BR BKN030CB
BECMG 0413/0415 17005MPS

Related Locations
Nearby:
Farthest:IPC: 11495 mi / 18499 km
Easter Island (Isla de Pascua, Rapa Nui) [Mataveri Intl], VS, CL

Find:

   beyond  
but within

Other Information
Maps:
NOTAMs:
Links:
Sources:

  
flag of Kyrgyzstan   

Sectional Chart

Flight Planning
at skyvector.com

Satellite Image

Google Maps Satellite view

 

Copyright © 2004-2015 Karl L. Swartz. All rights reserved.
The Great Circle Mapper name and logo are trademarks of the Great Circle Mapper.
All other trademarks mentioned herein belong to their respective owners.
Please see credits for attibutions and further copyright information.

  Follow gcmap on Facebook Follow gcmap on Twitter Follow gcmap on Google+

hCard Microformat

Geo Microformat